Terug naar catalogus

THOR ABLESTAR R/B

ActiefLEO
NORAD 447·ROCKET BODY·🇺🇸 United States

Gelanceerd Oct 31, 1962 vanaf Cape Canaveral Space Force Station

Loading…

Volgende Passages (komende 24 uur)

TLE

VersSource: Space-Track

Epoch: Sep 9, 2026, 07:29 UTC

1 00447U 62060B   26252.31247601 -.00000119  00000-0  16321-4 0  9999
2 00447  50.1284 214.3512 0065769  70.3286  76.0044 13.39177031123343

Volg THOR ABLESTAR R/B in realtime met AllMySat

Download on the App Store